Regional Weather Roundup
Issued by NWS

Home | Current Version | Previous Version | Graphics & Text | Print | Product List | Glossary On
Versions: 1 2 3 4 5 6 7 8 9 10 11 12 13 14 15 16 17 18 19 20 21 22 23 24 25 26 27 28 29 30 31 32 33 34 35 36 37 38 39 40 41 42 43 44 45 46 47 48 49 50
000
ASUS45 KSLC 010810
RWRUT

UTAH REGIONAL WEATHER ROUNDUP
NATIONAL WEATHER SERVICE SALT LAKE CITY UT
100 AM MST SUN MAR 01 2015

UTZ001>011-023>025-010900-

NORTHERN UTAH

CITY           SKY/WX    TMP DP  RH WIND       PRES   REMARKS
BRIGHAM CITY   PTCLDY    33  24  72 SE5       29.97R WCI  28
HILL AFB       PTCLDY    34  25  68 E7        29.95R WCI  28
LOGAN          MOCLDY    30  21  69 NE3       29.97R
OGDEN          CLOUDY    35  24  64 CALM      29.95R
PROVO AIRPORT  CLOUDY    34  32  93 CALM      29.96R
SALT LAKE CITY MOCLDY    34  31  88 S5        29.95R WCI  30
VERNAL         CLOUDY    33  26  75 NE6       29.95R WCI  28
WENDOVER       CLOUDY    37  25  60 NW8       29.96R WCI  31
HEBER CITY     CLOUDY    25  23  93 CALM      29.95R
WEST JORDAN    PTCLDY    30  30 100 SW3       29.96R

$$

UTZ012>022-026-027-010900-

SOUTHERN/CENTRAL UTAH

CITY           SKY/WX    TMP DP  RH WIND       PRES   REMARKS
BLANDING       CLOUDY    31  31 100 N6        30.04S VSB 1/2 WCI  26
BRYCE CANYON   LGT SNOW  19  16  88 CALM      29.94R FOG
CEDAR CITY     CLOUDY    26  23  88 S6        29.92R WCI  19
DELTA          CLOUDY    32  32 100 S5        29.94R WCI  28
HANKSVILLE     CLOUDY    30  30 100 CALM      29.97R
MILFORD        PTCLDY    33  29  85 S7        29.94R WCI  27
MOAB/CYNLANDS  CLOUDY    32  30  92 W6        29.94R WCI  26
PRICE          CLOUDY    32  29  88 E3        29.93R
ST GEORGE      CLOUDY    45  36  70 E5        29.95R
KANAB            N/A     32  32 100 CALM      30.01R

$$

REGIONAL REPORTS     COLORADO/ARIZONA

CITY           SKY/WX    TMP DP  RH WIND       PRES   REMARKS
CRAIG, CO      LGT SNOW  24  21  88 SW12      29.97R FOG     WCI  13
GRAND JUNCTION MOCLDY    27  26  96 CALM      29.95R
RIFLE          MOCLDY    31  26  82 S5        29.94R WCI  26
MONTROSE       MOCLDY    27  26  96 SE6       29.98R WCI  20
CORTEZ         PTCLDY    25  24  96 E5        29.98R FOG     WCI  19
PAGE, AZ       MOCLDY    39  33  79 NW5       29.96S
GRAND CANYON   CLOUDY    32  30  92 CALM      29.96R
KINGMAN        CLOUDY    49  34  56 S6        29.89S
FLAGSTAFF      LGT RAIN  35  33  92 SW8       29.95S WCI  29

$$

REGIONAL REPORTS    NEVADA/IDAHO/WYOMING

CITY           SKY/WX    TMP DP  RH WIND       PRES   REMARKS
LAS VEGAS, NV  PTCLDY    52  29  41 CALM      29.84R
ELY            CLOUDY    29  26  89 N10G21    29.91R WCI  20
ELKO           CLEAR     31  21  66 NE14      29.94R WCI  21
POCATELLO, ID  CLEAR     21   9  59 E7        30.06R WCI  12
BURLEY         CLEAR     27  11  51 E6        30.04R WCI  20
EVANSTON, WY   PTCLDY    19  17  92 E12       29.94R WCI   7
ROCK SPRINGS   MOCLDY    11   6  81 NE13      30.00R WCI  -4

$$



USA.gov is the U.S. government's official web portal to all federal, state and local government web resources and services.